Temp
8 8 8 8 8 8 8 8 8 8 8 8 8 8 8 9 9 9 9 8 9 8 8 9 8 9 9 9 9 9 9 10 11 10 11 18 21 21 21 21 21 21 21 20 20 20 21 21 21 21 21 22 22 22 23 24 25 25 24 23 22 22 23 24 25 26 26 27 28 28 29 29 30 30 30 28 26 26 25 24 24 23 23 22 22 20 19 19
8 8 8 8 8 8 8 8 8 8 8 8 8 8 9 9 9 9 9 9 9 8 8 9 9 9 8 9 9 9 9 9 10 10 15 22 22 20 21 21 21 21 21 20 20 20 21 21 21 21 21 22 22 23 23 25 25 25 24 23 22 23 24 25 26 26 27 27 28 28 29 29 29 29 30 28 25 25 24 22 22 21 21 21 20 20 19 19
8 8 8 8 8 8 8 8 8 8 8 8 8 8 9 9 9 9 9 9 9 8 9 9 9 8 8 9 9 9 9 9 12 16 21 23 22 21 21 21 21 21 21 21 21 21 21 21 21 21 21 22 23 23 24 25 25 25 24 23 23 24 25 26 26 27 27 28 28 29 29 29 29 29 30 28 25 24 23 22 22 20 20 20 20 20 19 19
8 8 8 8 8 8 8 8 8 8 8 8 8 8 8 8 9 9 9 9 9 9 9 9 8 8 9 9 10 10 8 11 17 21 23 23 23 22 21 21 21 20 21 21 21 21 21 21 21 21 22 22 23 23 23 24 25 24 24 24 24 25 25 26 27 27 27 28 28 28 29 29 29 29 29 29 26 24 23 23 22 21 20 20 20 20 19 19
7 8 8 7 8 8 8 8 8 8 8 8 8 8 8 8 9 9 9 9 9 9 8 8 8 8 8 9 10 9 10 16 21 22 23 23 24 23 22 21 21 20 21 21 21 21 21 21 21 21 21 22 22 23 23 25 25 24 25 25 25 26 25 26 27 27 27 28 28 28 29 29 29 29 29 29 28 26 24 24 22 21 21 20 20 20 19 18
7 7 7 7 8 8 8 8 8 8 8 8 8 8 8 8 9 9 9 9 9 8 8 8 8 8 9 10 11 9 12 20 21 22 23 23 23 23 22 21 20 20 21 21 21 21 21 21 21 21 22 22 22 23 24 25 25 24 25 25 25 25 25 26 27 27 28 28 28 28 28 28 29 29 28 28 28 27 25 23 22 21 21 21 20 19 19 18
7 7 7 7 8 7 7 8 8 8 8 8 8 8 8 8 9 9 9 9 8 8 8 8 8 8 10 11 11 10 13 19 21 22 23 23 23 23 22 21 20 20 21 21 20 20 21 21 21 21 22 23 23 24 24 24 25 24 24 25 26 26 26 26 27 27 28 28 28 28 28 28 28 28 27 25 25 24 24 23 22 22 21 21 20 19 18 18
7 7 7 7 8 7 7 8 8 8 8 8 8 8 8 8 8 8 8 9 8 8 8 8 8 9 10 10 12 13 15 19 23 22 22 23 22 22 21 20 20 20 20 20 20 20 21 21 21 21 22 23 23 24 24 24 24 24 24 25 26 26 26 27 26 27 28 28 28 28 28 28 28 28 26 23 23 23 23 22 21 21 20 20 19 18 18 17
7 7 7 7 8 7 7 7 7 8 8 8 8 8 8 8 8 8 8 8 8 8 8 8 9 10 10 9 11 16 19 22 23 23 23 22 22 21 21 20 20 20 20 21 21 21 21 21 21 22 22 23 24 24 25 24 24 25 25 25 26 26 27 27 27 28 28 27 29 28 28 29 28 28 25 23 23 22 22 21 21 20 19 19 18 17 17 16
7 7 7 7 8 7 7 7 8 8 8 8 8 8 8 8 8 8 8 8 8 8 8 8 9 10 10 10 13 18 22 23 23 23 23 22 21 21 20 20 20 20 20 20 20 21 21 21 22 22 23 24 24 24 24 24 25 26 26 25 26 26 27 27 27 28 28 27 28 28 28 28 28 27 24 22 23 22 21 21 20 20 19 18 18 17 17 16
7 7 7 7 7 7 7 8 8 8 9 9 9 8 8 8 8 8 8 8 8 8 8 8 9 10 10 10 14 19 22 23 23 23 22 22 21 21 21 21 21 21 21 21 20 21 21 21 22 23 23 24 24 24 25 25 25 26 26 25 26 26 26 27 27 28 28 28 28 28 28 28 27 27 24 22 23 21 21 20 20 20 19 18 17 17 17 16
7 7 7 7 7 7 7 8 8 10 11 11 10 9 8 9 9 8 8 8 8 8 8 8 9 10 9 11 15 20 22 22 23 23 22 22 22 22 22 21 21 22 21 21 21 22 22 22 22 22 23 24 24 24 25 25 25 25 26 25 26 27 27 27 27 27 27 28 29 28 27 26 27 27 24 22 22 21 21 20 19 19 18 18 17 17 17 16
7 7 7 7 7 7 8 9 11 12 13 12 10 10 9 10 10 9 8 8 8 8 8 9 10 9 10 15 19 22 23 22 22 23 22 23 22 22 22 22 22 22 22 22 22 23 23 23 22 22 23 24 24 24 25 25 25 26 26 25 25 25 26 27 27 27 27 27 29 27 24 25 27 25 23 23 22 21 20 19 19 18 18 17 17 17 17 17
7 7 7 7 8 9 10 12 14 14 13 12 12 12 12 12 12 11 10 10 10 9 9 9 10 9 11 17 22 23 23 22 21 22 22 23 23 22 22 22 22 22 23 23 24 24 24 23 23 23 24 25 25 25 25 24 25 25 25 25 24 23 24 26 27 27 27 27 28 27 23 24 27 24 23 23 21 21 20 19 19 18 18 17 17 17 17 17
7 7 7 8 10 12 14 14 15 14 14 14 14 14 14 13 13 12 11 11 11 11 10 10 10 10 13 17 21 23 23 22 21 22 23 23 23 22 22 23 23 23 23 23 23 24 24 24 24 24 25 25 25 24 23 23 24 24 23 23 23 22 23 26 27 27 27 27 28 27 23 24 26 25 23 23 22 21 20 19 19 18 18 17 17 18 17 17
8 8 8 10 12 14 15 15 15 15 15 15 16 16 15 14 13 13 13 12 12 12 10 11 11 11 14 19 22 23 23 23 22 23 23 24 23 23 23 23 23 23 23 23 24 24 24 25 24 25 25 24 24 23 23 22 22 23 23 21 22 22 22 24 26 27 26 26 27 26 25 25 26 25 24 23 22 21 20 19 19 18 18 17 18 18 18 18
10 9 10 11 12 14 15 15 16 16 16 17 17 16 15 13 13 13 13 12 13 12 11 12 11 11 16 20 21 22 23 23 24 24 23 24 24 23 23 23 23 23 23 24 24 24 24 25 24 24 24 23 23 23 22 21 21 22 22 22 22 22 22 23 25 26 26 26 26 26 26 26 27 25 23 23 22 21 20 19 18 18 18 17 18 18 18 19
11 11 11 12 13 14 15 16 16 16 17 17 17 16 15 13 12 12 12 12 12 11 11 12 12 14 18 20 21 22 23 24 24 24 24 24 24 24 23 23 24 24 23 24 24 24 24 24 24 23 23 23 23 22 21 20 21 21 22 22 22 22 22 22 24 26 26 26 26 26 25 26 26 25 24 23 22 21 20 19 19 18 18 18 18 18 19 19
12 12 12 13 13 14 15 16 16 16 16 17 16 15 14 12 12 12 11 11 13 15 17 15 15 19 21 21 22 22 23 24 24 24 24 24 24 24 24 24 24 24 23 23 23 23 24 23 23 22 22 22 22 22 22 22 22 22 22 22 22 22 22 23 24 25 26 25 25 25 25 26 27 26 24 23 22 21 20 19 19 18 18 18 18 19 19 19
13 13 13 13 14 14 15 15 15 15 16 16 16 15 15 15 15 15 13 12 14 18 20 18 17 20 21 21 23 23 24 24 24 24 24 24 24 24 23 23 23 23 23 22 22 23 23 22 22 22 22 23 23 22 22 23 22 22 23 22 22 22 22 24 25 25 26 25 25 25 25 26 27 26 24 23 22 21 20 19 19 19 19 19 19 19 19 19
13 13 13 14 14 14 15 15 14 14 15 15 15 15 17 18 18 18 17 16 16 16 18 19 18 19 20 22 22 23 23 23 24 24 24 25 24 23 23 23 23 22 22 22 22 23 22 22 21 22 23 23 23 22 21 22 22 23 23 23 23 22 23 25 25 25 26 26 24 25 25 25 27 26 24 23 22 21 20 20 19 19 19 19 19 19 19 19
13 13 13 14 14 14 15 15 14 14 14 14 13 14 17 18 19 20 19 18 18 17 17 18 18 19 20 21 21 22 22 22 23 24 24 25 24 23 23 23 23 22 22 22 22 22 21 21 22 23 22 21 22 22 21 22 24 24 23 23 22 22 24 25 25 25 26 26 25 25 25 25 25 26 24 23 22 21 21 20 20 19 19 19 19 19 19 19
13 13 13 14 14 15 15 15 14 14 13 13 12 13 17 20 20 20 19 19 19 19 19 18 18 19 19 20 22 22 21 22 23 23 24 24 23 23 23 23 23 22 22 22 22 21 21 22 23 23 21 20 22 22 22 23 24 24 23 22 21 22 23 23 25 26 25 25 25 25 26 25 24 24 24 23 22 22 21 21 20 20 20 20 20 19 19 19
13 13 13 14 14 15 15 15 14 14 14 13 13 16 19 20 20 20 19 19 19 19 20 20 20 20 20 22 23 22 22 23 24 24 24 24 23 23 23 23 22 22 22 22 22 21 21 23 24 23 21 21 22 23 23 24 23 23 23 22 22 23 23 23 24 25 25 25 25 25 24 24 25 25 24 23 21 21 21 21 21 20 20 20 20 20 20 20
13 13 14 14 14 15 15 14 14 14 14 13 16 20 21 20 20 20 19 18 18 19 20 21 21 22 23 23 23 23 23 23 24 24 24 24 24 23 23 23 22 22 22 22 22 21 22 23 23 23 22 22 23 24 24 24 23 22 24 24 23 23 24 24 24 24 23 23 24 24 21 22 24 25 25 24 22 22 21 21 21 20 20 20 20 20 20 20
13 13 14 14 14 15 15 14 14 14 14 15 19 20 20 20 21 20 19 17 17 19 21 21 22 23 24 24 24 24 23 23 25 25 25 25 25 24 23 23 23 22 22 23 22 22 23 23 23 23 23 23 24 24 24 24 22 21 23 25 24 24 23 24 23 23 21 21 23 23 22 21 22 25 26 24 23 23 22 21 21 20 20 20 20 20 20 20
12 13 13 13 14 14 14 15 15 14 16 19 20 20 20 20 20 20 19 16 17 20 21 21 22 24 24 24 25 24 22 23 25 25 25 25 25 25 24 23 23 23 24 23 22 22 24 23 23 24 24 24 24 24 23 24 22 22 24 25 24 24 24 23 23 22 22 22 22 23 23 21 21 24 25 23 24 24 23 22 22 21 20 20 21 20 20 20
13 13 13 13 14 13 13 13 12 14 18 20 20 19 20 20 21 20 18 16 20 22 22 22 23 24 24 24 25 24 23 24 24 24 25 25 25 25 23 23 23 23 24 23 21 22 23 23 24 24 24 24 24 24 24 24 23 24 25 25 24 24 24 24 23 22 22 22 21 22 22 21 20 23 24 23 24 25 24 24 24 22 20 21 21 21 20 20
13 13 13 13 14 14 13 11 11 15 18 19 19 19 20 20 21 19 17 17 21 23 23 23 23 23 24 24 24 24 25 25 24 24 25 25 25 25 23 23 23 23 24 23 22 23 24 24 25 24 24 24 24 25 25 24 24 25 25 24 24 25 24 24 23 22 22 21 21 21 21 21 20 22 23 23 24 25 25 24 23 22 21 21 21 21 21 21
13 13 13 13 13 13 12 11 14 18 18 18 18 20 20 20 19 17 16 18 21 22 23 22 22 23 23 23 23 24 24 24 25 25 24 24 24 25 24 24 24 24 23 23 23 23 24 24 24 24 25 25 25 25 25 24 24 25 24 24 24 24 24 23 22 22 21 20 21 21 21 21 20 21 23 23 23 25 25 24 22 22 21 21 21 21 21 21
14 14 13 13 13 13 12 13 17 19 18 18 19 20 20 19 17 16 17 19 21 21 22 22 22 23 23 23 23 23 24 24 25 24 23 24 24 23 24 23 23 23 22 22 23 23 24 24 24 25 26 25 25 25 25 24 24 24 24 23 22 22 22 22 21 21 21 20 21 21 21 21 20 21 23 24 24 24 24 23 22 21 21 21 21 21 21 21
14 15 14 14 14 13 14 17 19 18 18 18 18 19 19 17 16 16 17 20 21 21 22 22 23 23 23 23 23 23 23 23 24 24 23 23 23 22 23 23 23 22 21 21 22 22 23 24 24 25 25 25 25 24 24 24 24 24 23 22 21 20 20 20 20 20 20 20 20 20 21 21 20 21 23 24 24 23 23 22 21 21 21 20 20 20 20 20
14 15 15 15 15 15 16 18 18 18 18 18 18 18 17 16 16 17 18 19 20 21 22 22 23 23 23 22 22 23 23 23 24 24 23 23 22 22 22 23 23 22 21 21 21 21 22 23 23 24 25 25 25 23 22 23 24 23 22 21 21 20 20 20 19 19 20 20 20 20 21 21 20 22 23 23 22 22 22 21 21 20 20 20 20 20 20 20
15 15 15 15 15 16 17 18 17 17 17 17 17 17 16 15 16 17 18 19 20 21 22 22 22 23 23 22 23 24 23 23 24 24 23 23 22 22 22 22 23 23 22 21 20 21 21 21 23 24 24 25 25 24 24 24 24 24 23 22 21 21 20 20 20 20 20 20 20 20 21 20 20 22 23 23 22 21 21 20 20 20 19 19 19 19 19 19
15 15 15 15 15 17 18 18 18 17 16 16 17 16 15 15 16 17 18 19 20 21 21 22 22 22 22 22 23 24 23 23 23 23 23 22 22 22 23 23 22 22 22 21 20 21 20 21 23 24 24 25 25 24 25 24 23 23 22 22 21 21 21 20 20 20 20 20 20 20 20 20 21 23 23 23 22 21 20 20 20 19 19 19 19 18 18 18
15 15 15 15 16 18 18 18 17 16 16 16 16 15 15 16 17 18 19 20 21 21 21 21 22 21 21 22 22 23 23 23 23 23 22 22 22 22 23 23 23 23 22 21 21 21 20 21 23 24 24 24 24 25 25 24 23 22 22 22 22 22 22 21 19 19 19 20 20 19 20 20 21 22 22 22 22 21 20 20 19 19 18 18 18 18 18 17
14 14 13 14 16 18 18 18 17 16 16 16 15 15 16 17 18 19 20 20 20 21 20 19 21 21 20 21 21 21 21 21 22 22 21 22 22 21 22 23 24 23 23 23 21 21 21 21 22 23 23 24 24 25 25 25 24 23 22 22 23 21 21 21 20 19 19 19 20 20 20 20 20 20 21 22 22 21 20 19 18 18 18 18 17 17 17 17
10 10 12 15 18 18 17 17 16 16 16 15 14 15 16 17 19 19 20 20 20 20 20 19 20 21 20 20 20 20 20 20 22 22 21 22 21 20 21 23 24 23 23 24 23 21 21 21 21 22 22 23 24 24 24 24 25 24 23 24 23 21 21 21 20 19 19 18 19 20 19 19 19 20 20 21 21 21 20 19 18 18 18 17 17 17 17 17
9 10 14 17 19 18 17 16 16 16 16 15 14 15 16 17 19 19 20 20 20 20 19 20 21 21 21 21 20 21 20 19 21 22 21 21 21 20 21 22 23 23 23 24 23 21 21 20 21 21 22 22 23 23 21 21 23 24 24 23 22 21 21 20 20 20 19 19 19 19 19 19 19 19 20 20 20 20 20 19 18 18 17 17 17 17 17 17
10 12 16 18 18 17 17 16 15 15 15 14 14 15 17 17 18 19 20 20 20 20 20 20 21 21 21 21 21 21 21 20 21 22 21 21 21 21 21 22 22 23 23 23 22 21 20 20 20 21 21 21 22 21 20 20 21 22 22 22 21 21 20 20 20 19 20 19 18 18 18 18 19 19 19 19 19 20 20 19 18 18 17 17 17 17 17 16
9 13 17 18 18 17 17 16 15 15 15 15 15 16 17 18 18 19 20 20 20 21 21 21 21 21 21 21 21 21 21 21 21 21 20 20 20 20 21 21 21 22 23 23 21 20 20 20 20 20 21 21 21 21 21 21 21 21 21 21 20 20 20 20 20 19 19 20 19 19 18 18 19 19 18 19 19 19 20 19 18 18 18 17 17 16 16 16
10 14 17 18 17 16 17 16 15 16 15 16 16 17 17 18 18 19 19 20 20 21 22 22 22 21 21 21 21 21 21 21 21 21 21 21 20 20 21 21 22 22 22 21 20 20 20 20 20 20 20 20 20 20 21 21 22 22 21 20 19 20 20 20 20 19 19 19 18 19 18 18 19 19 18 19 19 18 19 19 19 18 17 17 16 16 16 16
12 13 16 17 16 17 17 14 14 16 16 17 17 17 18 18 18 19 19 20 20 21 22 21 21 21 21 21 21 21 21 21 21 21 21 21 20 21 21 21 21 21 20 20 20 20 20 20 20 19 19 20 20 20 20 21 21 21 20 20 20 20 19 20 20 19 19 18 18 18 18 18 19 19 18 18 18 18 18 18 18 17 17 16 16 16 16 16
11 11 14 16 16 17 16 13 13 15 16 17 17 17 18 19 19 19 19 20 21 21 21 20 21 21 21 21 21 21 20 20 21 20 20 20 20 21 22 22 21 21 20 20 20 20 20 19 19 19 19 19 20 20 20 19 19 20 19 19 19 20 20 19 19 19 19 18 18 19 18 18 19 18 18 18 18 18 18 18 18 17 17 16 16 16 16 17
11 11 13 14 14 15 14 12 14 16 16 16 17 17 18 19 19 20 20 19 20 20 20 19 19 20 20 20 20 20 20 20 20 19 19 20 20 21 22 21 21 20 20 20 20 20 20 18 18 19 18 18 18 18 18 18 18 19 19 19 19 19 20 20 19 19 19 18 18 19 18 18 19 18 18 18 18 18 18 18 18 17 17 17 17 17 16 16
12 12 12 12 12 13 12 12 14 15 15 16 16 17 17 17 19 20 20 19 18 19 18 17 18 18 18 19 20 19 18 18 18 17 18 19 19 20 21 21 21 20 20 21 21 20 19 18 18 19 18 18 18 18 18 18 18 18 18 19 18 18 18 19 18 18 18 18 19 18 18 18 17 16 16 17 18 18 18 18 18 17 17 17 17 17 17 17
12 11 11 10 11 11 12 12 13 13 15 15 15 16 16 16 17 18 19 18 18 18 17 16 16 16 16 17 18 16 16 16 17 16 16 17 18 19 19 20 20 20 20 20 20 20 19 18 18 18 18 18 17 17 18 18 18 18 18 18 18 18 18 18 18 18 17 18 18 17 17 17 16 15 15 15 16 17 17 17 17 16 16 16 17 17 17 17
10 11 10 10 10 10 11 11 12 12 14 15 15 15 14 14 15 15 16 17 17 17 16 15 14 14 14 15 15 14 14 15 15 15 15 16 17 18 19 19 19 20 20 20 20 19 18 18 17 17 17 17 17 17 17 17 17 17 16 16 17 18 18 18 17 17 17 18 17 15 15 15 15 14 15 15 15 15 15 15 15 15 15 15 16 16 16 16
9 9 9 10 10 10 10 11 12 12 13 14 14 14 13 13 14 14 14 15 15 15 15 14 13 13 13 13 13 12 12 13 13 13 14 15 16 17 18 18 18 19 19 19 18 18 17 17 17 17 17 16 17 17 16 16 16 16 14 14 15 17 17 16 16 15 16 16 14 14 14 14 14 14 14 14 14 14 14 14 14 14 14 14 15 16 16 17
8 8 8 8 9 11 11 12 12 12 13 13 13 14 13 13 13 14 14 14 13 13 14 13 12 13 12 12 12 11 11 12 12 12 13 14 15 16 16 17 17 18 18 18 18 17 17 17 16 17 16 16 16 16 16 16 16 15 14 13 14 15 15 15 15 14 15 14 13 14 14 13 13 13 13 13 13 13 13 13 13 13 13 13 14 15 15 16
7 8 8 8 9 11 11 11 12 11 11 11 13 13 13 13 13 13 13 13 13 13 13 13 12 12 12 12 12 11 12 12 12 13 13 13 14 15 16 16 17 17 17 17 17 17 17 16 16 16 16 15 16 16 16 16 16 15 13 12 13 14 13 12 12 12 13 13 13 14 14 12 12 12 12 12 12 12 12 12 12 12 12 12 13 13 13 13
7 8 8 8 9 10 10 10 11 10 10 11 12 13 13 12 13 13 13 13 14 13 13 12 12 12 12 12 12 12 12 13 13 13 13 14 14 15 16 16 17 17 17 17 17 17 17 16 16 15 15 15 15 15 16 16 15 15 13 12 12 12 11 11 10 10 11 12 12 13 12 11 11 11 11 11 11 11 11 11 11 11 11 11 11 11 11 11
Height
800 799 798 797 796 795 795 794 793 792 792 791 790 789 788 788 787 786 785 784 784 783 782 781 780 780 779 778 777 775 774 772 770 770 768 758 754 757 757 758 759 760 761 762 763 764 764 765 765 764 767 767 768 766 764 763 762 767 775 784 786 784 778 769 766 765 764 762 756 750 746 747 747 740 734 737 743 745 749 750 748 747 747 750 753 756 761 765
799 798 797 796 795 794 794 793 792 791 791 790 789 789 788 787 786 786 785 784 783 782 781 781 780 779 778 777 776 775 773 771 770 768 760 752 753 756 756 757 758 759 760 761 762 763 764 765 764 765 768 768 767 765 765 762 761 768 775 781 781 776 768 761 762 761 760 760 756 751 747 746 747 743 736 745 754 750 755 759 754 755 757 757 758 760 764 766
798 798 796 795 794 793 793 792 791 790 790 789 788 788 787 787 786 785 785 784 783 782 781 780 779 778 777 777 775 775 773 771 768 761 752 749 752 753 755 757 757 758 760 761 761 762 763 764 765 767 769 769 767 765 766 763 762 766 771 778 775 767 762 758 758 757 756 755 754 751 746 745 745 741 739 747 756 754 757 760 758 762 763 763 763 764 767 769
798 797 795 794 793 792 791 791 790 789 789 788 788 787 786 786 785 785 784 783 782 781 781 780 779 778 777 776 775 774 773 771 762 752 749 749 750 751 753 755 756 758 759 760 761 762 763 764 765 767 769 771 767 765 767 764 763 765 767 772 766 761 761 756 754 752 752 752 752 750 747 747 742 739 741 746 756 760 757 752 752 759 761 763 766 767 770 772
796 795 794 793 792 791 790 790 789 788 788 787 787 786 785 785 784 784 783 782 782 781 780 779 778 777 776 775 775 774 774 770 757 748 749 749 749 750 752 754 756 757 759 760 761 762 763 764 766 768 769 770 767 767 766 761 761 765 763 763 759 758 760 754 750 750 749 749 750 750 749 747 741 740 743 744 752 755 751 747 747 751 754 759 764 768 771 773
795 793 792 792 791 790 789 789 788 787 787 786 786 785 785 784 783 783 782 781 781 780 779 778 777 776 775 774 774 774 773 766 753 749 749 749 749 750 751 753 755 757 758 760 760 761 762 763 767 769 769 767 768 767 764 759 759 766 764 758 757 756 758 752 748 749 748 749 750 749 746 744 745 746 744 743 746 745 743 745 748 751 753 756 762 767 771 773
794 792 791 790 790 789 788 787 786 786 785 785 784 784 783 783 782 782 781 780 780 779 778 777 776 775 774 774 773 774 774 762 749 749 749 749 750 749 752 753 754 757 757 758 759 761 762 764 767 767 768 767 766 763 761 758 759 766 765 758 755 753 753 749 747 747 746 749 747 744 744 744 749 750 747 748 746 742 743 746 749 753 755 758 763 768 771 774
792 791 790 789 788 787 786 785 785 784 784 783 783 782 782 781 781 780 779 779 778 778 777 776 775 774 774 774 772 773 771 758 747 748 748 748 749 749 751 752 754 756 756 757 757 759 761 763 764 764 768 765 762 761 758 760 761 763 762 756 752 750 748 745 746 746 745 745 743 742 745 746 746 746 750 753 748 745 746 748 751 754 757 761 766 770 773 775
791 790 788 788 787 786 784 784 783 783 783 782 782 781 781 780 779 779 778 778 777 777 776 775 775 774 774 774 773 770 760 749 746 747 747 748 748 749 750 751 753 754 754 756 755 759 760 761 761 761 765 762 759 759 757 762 764 758 756 754 751 749 745 742 744 744 743 743 741 744 746 744 741 744 755 755 749 749 749 752 754 756 760 764 768 770 772 774
790 788 787 786 785 784 783 782 782 781 781 780 780 779 779 778 778 777 776 776 776 775 775 775 774 773 774 773 773 767 751 745 747 746 746 747 747 748 750 750 751 752 753 754 755 757 756 756 756 757 761 759 757 757 757 761 759 752 751 751 749 748 744 742 743 741 742 741 739 744 746 743 739 745 762 759 750 750 752 756 757 758 763 765 768 770 771 773
789 787 786 785 784 782 781 781 781 780 779 778 778 778 777 776 776 775 775 775 774 774 774 774 773 773 773 772 772 762 747 745 747 746 746 746 746 747 748 749 750 750 751 752 753 753 753 753 754 757 761 758 756 757 755 754 753 749 750 751 747 746 744 741 742 740 740 741 737 740 742 742 741 746 758 758 753 751 752 758 760 761 764 766 769 771 772 772
787 786 784 783 782 780 780 780 779 779 777 777 777 776 776 775 774 774 773 773 773 773 773 773 773 772 772 772 768 755 746 747 747 746 746 745 746 746 746 748 749 749 750 751 752 751 753 753 755 761 760 756 758 760 754 749 750 749 748 753 748 744 744 741 741 740 741 742 735 738 748 749 746 748 751 753 755 753 754 760 762 764 766 767 770 771 773 772
786 784 783 781 780 779 779 778 777 777 776 776 775 774 774 773 773 773 772 772 771 772 772 772 772 772 773 767 754 746 745 747 747 747 746 745 746 746 747 749 748 749 750 750 750 750 751 751 755 758 755 755 758 756 750 746 749 748 747 751 751 751 749 740 739 739 741 742 734 742 761 758 747 750 751 750 754 755 758 762 762 764 766 768 769 770 772 772
785 783 781 779 778 778 777 776 776 775 774 774 773 773 773 772 772 771 771 770 770 771 771 771 771 772 772 760 745 743 745 744 747 747 746 746 746 747 748 748 749 749 749 749 748 748 749 749 752 753 750 752 753 750 750 751 751 751 751 751 756 762 754 740 738 740 742 741 733 745 766 758 746 751 751 748 750 753 759 762 762 764 766 768 768 769 771 771
784 782 780 778 777 776 775 775 774 773 773 772 772 772 771 771 771 770 770 769 769 770 770 771 771 771 771 758 743 743 743 742 744 744 745 745 745 746 746 747 748 748 748 749 747 747 747 747 750 752 750 748 750 755 759 759 754 753 760 763 764 766 757 743 738 739 743 741 735 747 762 755 745 748 748 747 749 751 757 762 762 764 766 768 768 768 769 770
783 781 779 777 776 775 774 773 773 772 772 771 771 771 770 770 770 769 769 768 769 769 770 771 769 771 769 755 743 742 741 741 742 742 744 744 744 745 745 746 747 747 748 747 746 746 745 747 748 749 750 751 755 761 765 768 765 760 765 771 768 766 763 753 741 736 740 742 741 746 755 753 744 744 746 748 750 751 756 762 762 764 766 767 768 768 768 769
783 781 778 777 775 774 773 772 772 771 770 770 770 770 769 769 768 769 768 768 769 768 769 770 769 771 763 747 743 743 740 740 741 742 743 743 744 744 745 746 746 746 746 745 745 745 746 747 749 750 752 756 758 763 773 781 778 769 768 770 769 767 767 761 747 735 736 742 745 745 748 750 744 742 747 749 750 752 757 761 762 763 766 767 767 767 767 767
783 780 778 776 775 773 772 772 771 770 769 769 769 768 768 768 768 768 768 768 768 769 770 769 770 770 757 744 744 742 738 739 740 741 742 742 743 744 745 745 744 745 747 748 747 747 749 749 752 756 758 760 761 766 778 782 776 772 770 770 769 767 765 764 753 737 734 742 746 746 749 749 745 744 747 749 749 752 756 758 760 762 764 765 766 767 767 767
783 781 778 776 774 773 772 771 770 769 768 768 768 767 766 767 767 767 768 768 768 766 764 764 764 761 751 744 742 739 737 738 739 740 740 741 742 743 744 744 744 746 752 755 753 750 751 754 758 764 765 764 763 765 770 770 767 768 768 768 769 768 764 759 749 733 731 742 745 745 749 747 745 746 748 749 749 751 754 757 759 762 763 764 766 766 766 768
783 781 778 776 774 772 771 770 769 768 767 767 767 766 766 766 767 767 767 767 763 757 753 754 755 751 746 741 738 739 738 738 739 739 738 739 741 743 744 745 746 749 754 758 757 751 752 761 766 765 763 761 760 762 762 761 763 764 766 765 764 767 763 751 742 730 726 740 746 742 746 747 744 747 750 751 753 754 757 760 762 762 763 763 764 764 765 767
783 780 778 776 774 772 770 769 768 767 767 766 766 766 764 764 767 766 763 760 754 750 750 748 749 747 743 739 737 738 740 740 738 737 737 738 739 745 747 746 751 756 755 755 756 752 754 766 766 758 756 754 754 758 761 762 763 761 763 762 761 765 759 746 741 734 727 737 747 744 746 749 743 744 749 751 757 759 757 759 762 761 761 761 760 762 763 765
782 780 778 776 773 771 770 768 767 766 766 766 765 765 762 760 761 760 759 757 749 745 747 744 745 744 738 737 737 738 743 744 741 737 736 737 740 746 747 746 753 756 753 754 758 760 764 767 759 750 752 756 755 757 761 761 757 757 760 762 763 762 755 745 739 736 732 736 747 747 746 750 746 744 747 748 751 754 752 751 754 757 760 761 761 761 762 764
782 779 778 775 773 771 769 768 767 766 765 765 765 764 760 756 757 756 758 759 749 740 741 742 743 742 737 737 735 737 744 744 742 739 734 737 741 743 746 748 752 754 754 757 761 768 771 761 748 746 753 759 759 758 759 758 753 755 759 762 765 761 757 754 743 737 737 739 745 747 744 748 750 748 748 747 746 749 750 750 750 752 754 755 755 756 758 761
781 779 777 775 773 771 768 767 766 765 765 764 763 760 757 755 755 756 756 759 754 740 734 734 736 737 734 732 731 736 741 739 738 736 732 736 741 742 745 747 753 756 756 757 760 766 765 751 742 746 752 758 759 758 756 755 756 757 756 759 763 759 756 755 748 741 740 741 741 745 751 749 747 749 749 748 748 750 752 753 754 754 751 751 753 753 754 755
780 779 776 774 773 770 768 767 765 765 764 762 760 757 756 755 753 755 756 761 760 744 732 730 731 731 726 727 730 731 735 735 732 731 729 732 737 741 744 745 751 757 756 755 760 764 759 746 743 747 751 754 755 754 753 753 759 760 754 752 755 756 755 753 752 751 753 756 747 749 767 764 748 747 749 749 751 753 753 753 754 754 753 754 755 754 753 753
779 778 775 774 772 769 768 766 764 766 764 760 758 757 757 755 754 754 757 770 768 747 735 733 731 727 722 726 727 727 738 737 725 724 726 728 730 735 744 746 746 751 751 751 756 757 750 742 743 747 749 750 751 751 750 751 761 765 753 746 749 753 755 755 754 757 764 767 754 750 769 774 758 747 745 750 753 753 755 755 754 754 755 755 755 754 753 753
779 777 775 773 771 769 768 766 765 765 762 759 757 758 757 754 755 752 760 782 773 743 735 735 731 726 722 723 721 730 745 736 723 724 723 725 728 731 743 748 746 748 744 749 760 754 744 743 744 745 745 748 750 751 749 748 758 762 747 742 748 750 754 756 755 759 762 761 757 753 759 772 770 753 746 751 752 751 754 754 754 754 754 753 753 753 753 752
777 775 774 772 770 770 768 766 766 763 761 758 757 758 756 754 755 753 769 788 763 732 732 733 726 722 720 720 720 728 733 726 730 730 718 721 728 731 743 745 744 747 741 749 765 753 743 746 745 742 745 749 748 746 744 745 752 750 740 741 745 746 750 752 753 759 761 763 768 764 760 774 778 758 749 752 750 750 751 748 748 750 751 752 751 752 752 751
776 774 772 771 769 769 767 766 765 761 759 757 757 757 754 754 754 758 779 782 749 728 729 728 725 724 722 723 724 725 724 724 732 727 717 723 726 729 740 740 740 745 741 746 757 750 742 740 737 739 745 746 743 739 738 743 747 741 738 743 742 743 748 749 753 757 761 771 776 769 765 776 781 762 752 754 751 749 747 745 747 747 749 750 750 752 752 752
774 772 771 769 768 767 766 765 762 759 758 756 757 755 753 755 759 774 790 774 745 734 728 727 729 726 725 730 731 728 726 726 726 723 723 726 726 728 732 733 735 742 743 744 747 745 739 734 733 735 738 737 736 735 736 739 741 738 740 745 746 748 747 750 758 758 768 782 776 769 767 772 782 769 754 754 751 745 742 745 748 746 748 751 751 752 753 753
771 770 769 767 766 766 766 763 758 758 758 756 756 754 755 761 769 786 786 757 743 739 730 731 731 725 727 733 734 731 728 728 725 727 732 730 732 736 736 738 740 744 750 749 746 744 739 736 736 730 728 730 733 736 737 736 737 740 746 749 754 760 756 760 767 766 780 790 776 770 768 770 782 772 754 751 748 744 743 745 748 748 749 752 752 753 754 755
768 767 766 764 763 764 763 759 756 758 757 757 757 754 761 773 780 784 771 748 747 744 732 733 731 727 730 731 733 731 729 730 727 729 734 734 739 741 741 744 744 752 761 757 752 749 742 738 736 730 726 728 734 742 742 738 738 744 751 754 764 776 777 780 782 781 787 786 775 772 769 771 779 766 752 750 746 744 745 745 747 748 749 752 753 754 755 755
765 763 762 761 759 758 757 756 757 758 758 757 757 758 768 782 781 773 763 753 749 739 731 732 729 727 731 734 734 729 729 732 728 729 731 733 740 741 739 738 737 748 759 758 758 757 751 743 736 734 732 727 732 744 749 746 744 747 752 757 767 781 792 796 795 794 792 781 775 774 770 775 778 762 751 751 748 746 746 747 748 747 750 753 754 755 756 757
761 760 758 756 755 753 753 755 756 757 758 757 759 765 776 784 774 762 761 755 743 735 734 734 730 728 730 733 732 726 731 734 726 728 732 734 743 745 741 739 736 740 749 756 759 759 762 758 742 737 736 730 730 737 741 742 743 745 747 752 760 769 782 791 791 791 791 783 777 774 772 778 776 760 750 748 748 749 749 750 750 750 752 754 756 759 760 761
758 756 754 752 750 749 749 753 753 756 758 758 763 772 778 779 769 762 759 750 741 739 736 733 732 734 733 732 729 723 727 732 726 728 734 737 743 743 739 737 736 737 746 758 760 756 762 760 741 733 732 728 731 731 730 738 746 746 746 751 757 755 761 776 783 782 783 785 782 776 774 773 765 754 749 749 750 752 752 754 754 755 757 758 760 764 764 765
755 752 751 748 745 744 747 750 751 754 757 760 769 776 773 767 761 757 750 742 741 741 740 739 735 738 740 736 734 729 726 729 729 732 736 736 738 739 735 732 730 733 740 751 757 756 760 757 739 733 732 728 730 729 727 736 746 747 750 753 752 747 750 767 783 783 781 788 787 780 776 770 764 758 753 753 755 756 757 758 760 762 762 763 766 768 768 769
752 749 748 744 741 741 744 747 749 753 756 762 771 771 766 758 751 748 743 739 740 739 745 752 742 738 744 742 740 739 736 735 731 734 740 738 739 741 737 729 725 726 729 736 747 751 754 755 744 738 739 733 727 728 727 728 734 745 753 749 745 749 751 760 778 787 790 795 789 780 778 778 779 775 763 759 761 762 762 762 764 766 766 768 770 771 771 771
751 749 745 738 735 738 742 745 747 751 755 764 771 767 761 754 745 742 740 739 741 741 748 755 744 738 741 743 743 741 743 747 738 736 741 740 743 744 739 732 725 724 724 727 738 744 746 756 752 741 742 737 727 731 737 733 729 736 742 739 744 758 763 764 776 786 794 798 790 782 784 785 785 781 772 768 768 767 766 765 766 766 767 768 770 770 770 770
752 751 744 735 732 734 739 744 746 750 757 766 772 766 758 752 744 740 739 740 742 744 748 747 740 738 738 738 741 740 745 750 741 737 741 743 744 742 737 733 729 726 724 724 734 741 744 756 758 745 740 740 736 742 754 753 739 733 736 739 745 755 762 766 773 778 785 795 795 788 790 789 782 779 775 771 768 766 766 767 767 768 767 766 767 767 767 767
753 751 743 736 735 735 737 743 747 753 760 764 766 761 754 750 743 737 737 738 739 740 742 740 736 739 738 735 737 737 741 746 740 737 743 742 742 742 737 733 733 731 726 726 734 741 745 755 760 751 742 746 751 753 758 759 752 747 747 749 750 755 761 765 770 774 777 788 796 795 798 795 782 777 775 770 766 764 764 767 769 769 768 767 767 766 766 768
755 753 744 737 738 737 738 746 751 755 760 760 759 756 752 748 743 738 735 735 736 734 733 733 733 735 735 734 735 733 736 741 738 738 742 742 743 745 739 732 733 732 728 732 738 742 747 753 758 757 753 754 758 753 749 749 750 752 754 755 756 757 761 768 777 779 774 779 787 790 799 798 783 776 774 769 766 764 762 765 769 769 769 768 769 769 769 769
757 754 743 737 740 738 739 749 753 753 756 756 753 751 748 745 743 740 735 733 734 730 726 727 728 729 732 732 731 731 733 737 737 736 738 738 740 741 737 731 732 733 733 741 745 742 744 750 755 760 758 756 755 751 747 745 744 747 753 757 759 758 759 767 776 778 776 780 782 783 792 793 780 774 772 767 765 765 764 764 767 770 771 771 772 771 770 769
758 753 741 738 742 738 741 756 758 753 752 750 747 745 744 743 742 740 736 734 732 728 726 727 727 727 729 728 728 731 733 735 735 736 735 736 737 734 732 731 733 736 739 744 745 741 743 752 758 761 759 753 750 748 747 746 747 752 758 759 760 761 762 763 767 769 773 782 784 786 795 791 776 772 772 768 765 765 766 766 767 771 774 774 774 773 772 771
759 756 746 741 741 739 748 764 764 754 750 747 746 745 742 740 740 739 737 735 730 726 728 730 728 727 728 727 727 730 734 737 737 736 736 739 738 731 729 732 734 739 742 743 743 741 747 758 762 766 769 765 761 760 758 756 758 761 764 763 762 763 762 764 767 767 772 780 780 783 794 789 777 774 773 768 766 766 767 767 768 771 774 775 776 775 775 774
759 758 752 748 746 746 757 766 760 752 750 749 749 747 743 739 735 733 734 734 731 728 731 733 730 729 730 729 730 731 734 738 740 741 739 737 736 731 729 732 734 739 741 740 739 740 750 760 761 766 777 779 778 777 773 771 769 766 766 766 766 766 764 765 770 771 775 780 778 780 788 784 777 777 775 770 768 768 768 768 769 772 774 775 775 775 776 776
761 762 761 758 755 755 760 761 755 752 752 752 751 747 745 744 736 729 730 736 736 733 737 739 733 732 736 735 734 739 741 741 743 747 747 744 741 737 733 732 735 739 741 739 738 742 753 761 761 764 770 773 775 775 771 770 771 771 770 768 769 771 768 768 773 776 778 779 778 779 782 781 783 785 782 777 772 771 770 770 771 774 775 775 774 773 774 775
766 770 773 772 767 763 762 758 757 757 754 752 753 750 748 749 743 736 734 736 738 736 740 746 742 742 748 744 742 750 754 750 750 752 753 751 746 742 739 737 738 740 741 740 741 745 755 762 764 766 768 769 771 771 769 769 773 774 772 771 772 773 770 770 774 777 778 780 784 785 783 786 793 793 789 786 780 777 777 775 774 776 777 776 775 774 775 775
773 776 778 777 776 774 771 765 763 762 756 752 754 754 755 755 751 749 745 740 740 740 744 753 755 754 757 753 752 761 763 758 760 762 759 756 751 746 744 743 742 742 742 743 744 748 757 763 764 766 770 771 770 769 770 772 774 776 778 778 775 771 771 774 776 777 776 779 788 791 789 793 797 795 792 790 787 784 783 782 779 778 778 778 777 777 778 779
780 781 780 778 779 779 776 770 767 765 761 757 757 758 761 762 759 757 753 749 751 751 750 760 765 762 762 759 759 768 772 768 771 771 766 763 759 755 754 752 749 745 744 747 749 751 758 765 765 766 770 772 769 770 772 773 775 780 785 786 781 777 777 778 780 782 780 784 792 794 794 798 799 798 795 792 791 789 787 786 784 783 783 782 780 780 779 779
786 787 786 782 780 777 773 771 768 767 766 763 762 762 764 765 763 761 758 758 763 762 758 764 769 766 766 766 767 774 777 776 777 776 771 769 766 761 761 760 756 752 750 752 754 753 758 767 767 766 772 775 772 772 775 776 778 783 789 790 785 783 785 785 787 788 786 792 798 793 794 801 803 802 800 797 795 793 791 791 791 790 789 786 784 784 782 781
790 789 788 787 784 780 778 776 772 773 776 773 769 767 766 767 766 763 763 763 765 767 766 768 771 770 769 769 770 774 775 773 775 773 770 770 768 763 762 761 758 758 757 756 757 756 759 767 769 769 776 780 775 774 776 777 778 783 790 795 792 790 794 798 801 798 794 796 797 793 798 807 807 805 804 801 800 799 798 798 796 795 794 791 790 790 789 787
790 789 788 788 787 786 785 783 778 780 785 782 775 770 770 771 767 764 767 767 765 767 769 768 770 772 773 773 772 772 771 769 769 767 765 765 764 761 761 759 758 759 759 759 760 760 761 765 770 773 778 782 779 776 776 776 781 788 796 801 800 799 801 806 810 809 804 801 800 801 808 812 811 808 806 805 805 804 804 803 801 800 798 796 796 796 795 793
Wind_Speed
12 11 11 11 11 11 11 11 10 11 11 11 11 11 11 11 11 11 11 11 12 12 11 12 12 13 13 13 13 13 15 17 16 10 9 12 14 10 11 9 3 2 6 9 6 3 3 4 7 9 4 2 2 2 3 4 3 2 2 3 4 4 5 3 2 1 2 6 10 12 7 4 2 4 2 7 9 8 9 7 7 10 10 13 20 30 31 30
12 12 12 11 11 11 11 11 11 11 11 11 11 10 11 11 11 10 11 11 11 11 10 11 12 12 12 12 12 12 15 17 14 13 17 14 9 11 15 9 5 5 7 10 9 6 3 2 5 5 2 1 2 2 2 2 2 3 3 3 5 5 4 1 2 4 3 6 10 10 6 3 1 2 2 5 4 8 11 6 9 14 13 15 21 27 27 27
12 12 12 11 11 11 11 11 11 11 11 11 11 11 11 11 10 10 10 11 11 10 10 11 12 11 11 11 11 11 14 13 7 10 11 11 13 14 17 13 9 6 7 8 7 8 8 3 4 2 2 2 3 3 2 3 2 2 3 4 5 5 5 4 4 6 5 7 7 8 5 5 3 3 2 4 5 7 10 7 8 12 13 14 15 19 22 21
12 12 12 11 12 11 11 11 11 11 11 11 11 11 11 10 10 10 10 10 10 10 10 11 11 11 11 10 10 10 10 6 3 6 3 5 11 15 19 17 13 11 10 8 7 7 8 5 6 3 2 3 3 2 3 4 3 2 4 5 6 5 6 6 7 7 7 7 4 4 5 6 6 3 1 4 5 3 7 10 12 15 16 16 14 15 17 16
12 12 12 12 12 12 12 11 12 12 11 11 11 11 11 10 10 10 9 9 9 10 10 10 10 10 10 9 8 8 5 1 2 5 4 5 6 13 19 17 14 14 13 10 8 6 6 5 1 1 2 4 3 1 3 5 3 2 4 6 7 6 6 7 8 7 6 7 5 1 3 3 6 5 3 1 2 4 6 8 15 19 19 19 16 14 14 13
13 13 12 12 12 12 12 11 12 11 11 11 10 10 10 10 10 10 9 9 9 9 9 9 9 9 9 9 6 4 1 0 4 5 4 5 5 10 16 16 15 15 14 12 7 3 3 2 2 2 2 3 4 4 5 5 4 3 6 6 8 8 7 8 7 5 4 6 7 2 1 1 4 6 5 4 2 5 6 10 15 16 17 19 17 14 13 12
13 13 12 12 12 12 12 11 11 11 11 10 10 10 10 10 9 9 9 9 9 9 9 9 9 8 9 7 2 2 1 4 9 5 4 5 6 10 14 16 15 16 15 11 7 4 2 2 3 3 2 4 4 6 7 4 5 5 6 7 9 9 9 10 7 5 6 6 7 3 1 2 2 3 3 5 2 7 13 14 17 16 16 18 16 14 12 11
14 13 13 12 12 13 13 12 11 11 11 11 10 10 10 10 9 9 9 8 8 8 8 8 8 7 7 5 1 1 2 7 8 4 7 7 9 12 15 17 17 17 14 13 10 6 2 2 5 3 2 5 4 4 5 2 2 5 7 9 8 8 9 10 8 6 7 6 6 4 1 4 5 2 3 4 7 14 16 16 17 17 16 15 14 13 11 10
14 13 13 12 12 13 13 12 12 11 11 11 10 10 10 10 9 10 9 8 8 8 7 7 8 6 5 3 1 2 3 5 3 4 8 9 12 13 16 17 18 17 14 15 11 6 3 3 5 4 3 5 4 5 3 0 4 6 8 9 8 10 10 9 7 7 7 4 5 5 4 6 6 3 4 3 11 15 15 16 16 17 17 14 13 12 12 11
14 13 13 12 12 13 13 12 12 11 11 11 10 10 10 10 9 9 8 8 7 7 7 6 7 5 3 3 1 1 4 3 3 6 8 11 13 15 17 16 16 18 14 11 10 9 7 6 5 2 3 4 3 5 3 4 4 5 7 8 9 11 10 8 8 7 5 4 6 5 5 7 4 3 2 1 10 16 16 16 14 15 15 13 12 11 11 12
14 13 13 12 12 13 12 12 12 12 12 12 11 10 10 10 9 9 8 7 7 7 6 5 5 3 3 2 3 3 4 3 4 6 6 10 13 16 18 16 16 18 15 8 11 15 11 10 5 1 3 3 2 5 4 4 3 6 7 7 9 8 6 5 4 6 3 4 6 5 5 5 2 3 8 8 10 16 18 15 13 14 12 12 12 9 8 9
15 14 13 13 13 12 11 11 12 12 12 12 11 11 10 10 9 9 8 7 6 5 4 4 3 1 3 1 4 7 5 4 3 5 5 7 9 12 15 15 15 18 16 7 8 14 14 14 6 2 6 3 2 4 5 5 4 7 6 4 7 5 5 6 3 3 1 3 3 2 4 6 3 2 12 14 10 13 17 14 12 12 11 10 10 8 7 8
16 14 14 13 13 11 10 11 11 11 11 11 11 11 10 9 9 8 8 6 5 4 3 3 1 1 2 2 8 9 6 4 4 6 6 5 4 7 13 13 12 14 15 11 11 15 17 17 9 7 8 3 2 3 4 7 3 6 4 1 4 6 6 6 2 3 2 3 2 4 3 7 5 3 13 16 14 15 15 14 12 11 10 10 9 8 7 8
17 15 14 13 12 11 10 11 11 11 11 11 11 11 10 9 8 7 7 6 4 2 3 2 0 1 1 5 11 10 10 10 7 13 10 7 5 6 11 13 12 14 16 18 18 17 19 19 10 7 6 3 3 3 5 6 2 4 4 2 3 3 5 4 3 4 4 4 5 6 3 9 7 4 15 16 17 18 15 13 13 11 10 9 8 9 8 9
18 16 14 13 11 10 10 10 10 10 10 11 11 11 9 8 7 6 6 5 2 2 2 1 2 2 1 7 12 9 7 4 10 19 13 8 9 7 11 15 15 17 19 20 21 21 21 17 8 3 2 1 1 4 5 5 3 3 2 4 4 1 5 6 5 6 6 4 6 7 4 7 8 6 16 15 15 17 15 12 11 12 11 10 8 9 9 8
19 17 15 13 12 10 9 9 9 9 10 11 11 10 7 6 5 4 5 3 1 4 3 0 2 3 1 5 8 7 5 5 13 21 14 9 12 11 12 15 15 17 20 21 21 20 15 9 3 2 1 2 2 3 4 5 5 4 1 3 4 2 5 6 6 6 8 5 3 7 5 3 6 5 15 15 15 16 14 11 11 12 11 10 9 8 9 8
22 20 17 14 12 10 9 9 8 9 10 10 10 8 6 6 4 3 3 1 3 3 4 0 1 2 3 6 6 5 5 7 12 17 15 12 13 14 11 8 9 13 13 14 14 11 6 3 2 1 1 2 2 4 4 4 4 4 2 1 4 4 4 5 8 7 7 7 6 8 7 3 5 7 16 14 15 15 13 12 12 12 10 9 9 8 9 9
24 23 20 16 12 11 9 8 8 9 9 9 9 8 6 5 3 1 1 5 5 2 2 2 2 0 3 5 4 3 4 8 12 13 15 15 13 15 13 6 5 5 3 5 6 4 1 2 1 1 3 3 2 5 2 3 3 3 2 2 3 3 4 6 8 7 7 9 8 8 7 5 4 8 16 14 15 15 14 14 13 12 12 10 9 9 9 8
25 24 23 20 15 12 9 8 8 9 9 8 7 7 6 3 1 1 3 4 3 1 2 3 3 1 2 5 5 4 5 9 11 11 15 16 13 14 12 8 4 3 2 1 4 3 1 1 2 1 3 3 2 5 6 7 6 6 5 4 4 4 5 7 11 11 7 8 8 10 8 5 4 5 10 11 13 13 12 12 11 11 10 10 9 8 8 8
25 25 24 22 18 14 10 8 8 9 8 7 6 4 3 1 2 1 1 3 4 6 5 5 7 4 7 7 5 4 5 8 8 10 16 18 12 7 5 5 2 2 3 3 3 3 3 2 2 4 6 7 7 7 8 7 7 7 3 2 3 2 5 8 9 8 6 9 6 9 7 5 6 3 6 5 4 7 11 10 9 10 9 10 10 10 10 9
25 25 24 24 21 16 12 10 9 9 8 7 6 2 1 1 1 2 2 4 8 10 10 9 10 10 12 12 12 8 5 5 7 9 17 18 10 4 2 3 3 3 4 4 3 2 3 3 6 9 10 10 9 8 7 6 6 5 1 1 4 1 4 9 6 6 3 7 0 2 7 3 6 3 4 8 5 6 12 12 11 12 11 10 11 12 11 8
24 24 24 24 23 19 14 12 11 11 10 8 5 1 3 4 3 5 4 4 8 11 13 12 11 12 15 17 22 15 6 5 7 6 13 12 7 5 3 2 5 4 3 2 1 2 1 4 10 13 10 6 6 5 5 5 4 1 1 1 4 3 4 8 6 7 6 5 1 1 5 5 6 4 4 11 12 11 12 15 15 15 12 10 10 11 10 8
23 24 24 24 23 22 16 12 12 13 12 9 6 5 6 10 10 12 6 3 8 7 10 10 9 9 11 13 17 12 6 6 6 6 10 10 5 5 3 2 5 4 2 3 4 2 2 7 12 12 6 4 4 5 4 2 1 0 0 1 3 2 1 4 6 7 5 3 2 2 2 3 4 3 3 7 10 9 9 11 12 13 14 13 13 12 12 12
22 23 24 23 24 23 17 13 13 11 10 9 10 9 14 17 15 14 6 1 6 6 6 11 9 6 10 11 9 8 6 6 6 6 11 11 4 3 4 4 3 3 4 5 6 5 7 10 7 5 5 8 5 5 4 3 2 3 2 3 3 2 2 5 6 7 6 4 3 5 4 4 3 3 2 4 2 7 7 8 7 9 11 11 12 13 14 14
22 22 23 23 23 22 17 13 7 6 9 10 11 13 19 15 7 6 3 1 4 5 4 7 6 6 12 10 8 7 5 6 6 6 11 13 7 4 2 3 3 4 7 5 5 4 10 12 6 4 5 8 6 5 3 4 1 4 3 6 6 5 5 6 5 5 5 5 2 4 3 5 5 3 3 3 2 7 6 9 12 11 7 7 9 11 12 12
22 21 22 22 22 22 17 7 3 7 10 11 9 14 16 10 2 4 1 3 3 5 2 3 4 6 9 7 6 4 4 6 9 10 14 16 13 7 2 2 2 5 6 4 3 2 7 9 6 5 5 7 6 4 4 5 5 2 4 6 6 6 4 5 4 1 3 2 4 3 4 4 6 5 5 2 4 8 7 8 10 9 7 8 9 10 11 10
23 21 21 21 22 22 12 4 8 9 6 8 9 11 11 9 3 3 2 4 3 4 2 1 2 5 6 6 8 6 3 5 5 9 14 17 13 6 4 4 1 3 3 1 1 2 4 3 4 6 5 6 5 4 5 6 8 3 6 6 5 4 4 3 3 2 2 3 4 4 5 2 4 5 6 2 3 5 10 9 8 9 10 10 10 10 11 11
23 21 21 20 20 19 12 9 11 8 5 10 11 8 11 12 5 1 5 2 3 2 2 2 2 4 3 4 7 7 6 3 2 5 12 20 14 5 5 7 4 4 3 2 3 6 3 1 5 6 3 3 4 5 7 6 5 7 7 5 4 4 6 5 6 3 1 1 4 6 3 3 4 6 5 4 3 1 8 11 9 11 13 13 12 12 11 12
23 22 21 20 19 17 12 10 9 6 9 14 10 8 12 10 3 3 4 1 2 1 1 1 1 2 2 1 5 8 6 2 2 5 6 15 12 5 5 8 5 4 3 4 4 6 4 6 9 6 4 4 6 6 6 7 4 7 3 3 4 1 3 4 5 3 3 4 3 6 1 2 4 5 5 4 2 3 6 5 5 9 14 14 12 11 10 9
23 22 20 20 18 12 9 12 12 6 13 15 10 9 10 6 4 4 1 2 2 2 1 0 1 3 3 2 3 7 7 2 2 0 3 7 7 2 1 3 3 2 2 1 2 5 5 5 5 5 5 6 5 4 4 7 6 4 1 2 3 4 4 4 3 4 4 2 5 6 1 4 1 5 4 2 1 4 2 2 2 5 11 11 9 9 8 7
24 22 20 19 17 10 6 9 8 2 12 16 12 8 6 4 4 4 3 3 2 3 1 1 2 3 6 6 4 5 6 4 2 4 1 3 5 1 2 2 2 2 3 5 3 5 6 2 3 3 4 5 4 0 2 1 2 2 2 2 2 4 5 5 4 4 3 2 6 6 1 6 1 4 5 4 4 6 2 6 3 5 10 8 7 7 6 6
25 22 20 19 18 14 12 11 7 5 12 15 9 4 4 3 1 2 3 3 2 2 1 1 3 3 5 6 5 5 5 4 2 5 5 3 5 5 4 4 3 2 2 3 3 5 5 3 4 4 2 4 5 1 5 5 5 5 3 4 4 1 4 3 4 2 1 3 4 5 1 3 2 6 6 6 7 7 2 7 6 8 11 8 8 8 7 7
25 23 21 19 17 19 21 18 15 13 14 10 5 4 5 4 2 4 4 3 2 2 2 3 4 3 4 4 4 5 5 5 3 5 6 4 4 5 5 5 6 5 1 4 1 2 3 5 4 3 3 2 6 3 2 3 2 4 4 3 4 3 3 1 3 1 1 4 4 4 1 0 4 4 6 6 7 4 3 6 6 10 11 9 9 9 8 7
26 23 20 18 17 20 21 18 17 14 10 6 4 5 4 2 4 4 4 4 3 3 3 5 7 5 3 3 4 5 5 4 5 6 5 4 3 3 4 4 5 6 3 3 1 2 1 4 3 2 2 2 5 5 6 4 1 3 5 5 4 4 4 3 3 2 3 3 4 4 1 2 2 4 6 4 4 2 9 7 7 10 10 9 9 8 8 8
26 22 20 19 20 22 19 15 16 13 5 3 5 4 3 4 3 2 4 4 2 3 4 6 8 6 3 2 3 4 5 4 4 4 4 5 4 5 4 4 5 5 4 3 3 2 3 3 6 4 3 5 5 4 5 6 1 3 2 5 1 4 5 2 2 5 4 0 2 2 1 3 4 5 5 2 3 6 11 9 11 12 9 10 9 8 8 7
27 22 18 15 18 20 16 12 13 11 5 5 4 2 4 4 3 2 3 3 1 3 7 7 5 4 2 2 4 3 1 2 3 2 1 2 3 4 4 4 6 8 7 4 3 1 2 4 7 4 2 2 4 5 5 5 2 2 2 1 4 4 7 4 1 1 4 3 2 2 1 4 3 3 5 6 4 6 11 10 11 11 10 11 9 7 8 7
28 21 12 13 20 19 13 10 11 13 7 5 3 4 4 3 4 4 2 2 3 4 5 5 3 1 2 1 3 4 6 5 3 4 2 2 1 3 3 4 3 8 10 5 2 3 4 2 6 4 4 5 4 1 1 3 5 3 1 3 1 3 4 4 1 2 4 2 4 2 2 3 3 2 5 7 4 2 7 9 9 10 10 11 9 8 8 8
23 15 9 16 20 16 11 9 15 14 6 3 3 4 3 3 3 4 3 4 5 5 3 2 3 2 3 2 2 2 5 5 2 4 3 2 3 3 3 4 3 2 7 5 2 2 4 0 6 3 3 6 6 5 4 5 2 4 4 3 3 3 1 1 2 1 1 1 3 2 1 1 1 1 5 6 4 3 1 5 7 9 10 10 9 9 9 9
11 6 5 10 10 9 15 13 16 10 4 2 3 3 3 4 5 5 6 5 4 3 3 4 3 2 2 3 3 3 3 2 4 3 2 2 3 3 2 2 3 3 2 6 4 2 3 3 4 5 2 3 5 5 3 5 6 3 1 2 2 3 3 2 2 3 3 2 3 2 3 1 2 2 5 6 5 3 3 3 4 5 5 6 7 7 7 8
3 3 3 9 14 10 21 15 11 5 2 4 4 3 3 4 5 6 6 5 3 3 4 4 2 0 2 2 2 3 4 5 6 1 1 0 0 1 3 4 3 2 3 7 4 1 3 4 2 5 5 3 1 2 2 2 4 4 3 3 2 1 2 1 1 2 3 4 2 1 2 4 4 2 4 5 2 3 6 5 5 4 4 4 5 6 6 7
3 3 4 12 12 17 23 11 4 3 2 3 2 3 3 4 5 8 8 6 5 5 5 4 3 3 3 2 1 3 4 4 6 2 2 0 1 1 3 6 6 4 2 6 4 1 2 2 3 1 4 2 2 3 3 3 2 1 1 2 1 3 3 3 1 2 1 4 3 4 2 4 5 3 5 4 2 6 8 8 6 4 5 5 4 5 6 6
3 0 6 17 9 21 18 4 3 3 2 3 2 3 4 4 5 7 8 7 6 6 5 4 3 3 3 2 1 2 3 2 5 4 3 2 4 4 1 7 8 6 3 3 2 1 3 3 3 1 2 3 5 3 3 4 2 4 3 2 2 2 3 5 3 3 1 1 1 4 3 4 5 4 4 1 2 4 6 8 7 4 3 4 4 4 5 6
1 3 9 19 11 15 9 4 2 0 1 4 3 5 5 4 6 6 6 7 6 3 1 1 1 1 1 1 2 2 2 1 2 2 2 2 2 3 3 7 6 5 4 2 2 2 2 4 3 1 3 4 5 2 4 7 6 5 3 3 4 2 1 4 5 3 3 1 1 3 1 3 4 5 4 3 6 6 6 6 8 6 4 4 5 4 5 6
2 4 7 17 17 7 6 2 3 3 3 3 3 4 5 5 7 7 7 7 6 2 2 1 2 1 1 0 3 3 3 1 0 2 2 3 2 2 3 5 5 4 2 1 2 0 1 2 3 3 3 6 7 5 6 6 5 2 2 3 4 4 4 2 1 3 3 1 3 5 2 3 3 4 2 4 8 9 7 7 8 7 6 5 5 5 4 5
3 2 4 11 17 10 3 3 3 2 2 3 2 4 4 4 6 7 4 3 5 2 3 3 5 4 2 3 2 3 5 4 1 5 3 2 1 2 5 6 6 4 2 1 3 3 2 2 3 4 2 1 1 1 2 3 3 2 3 5 5 5 6 3 2 4 2 0 2 5 4 4 3 3 5 6 7 8 7 7 7 6 6 5 5 4 3 3
2 2 3 6 8 6 1 3 2 3 3 2 1 4 3 2 4 4 2 4 6 6 7 7 8 6 5 5 3 4 7 6 4 3 4 3 3 2 1 6 7 5 5 6 5 4 4 2 3 6 6 5 4 4 3 1 3 3 5 6 5 4 4 4 4 2 2 2 2 1 4 2 5 7 7 6 4 5 5 5 6 5 4 4 5 5 4 4
2 2 4 3 4 4 3 4 6 6 4 1 1 3 4 4 5 4 4 4 4 5 6 9 11 8 5 5 4 5 7 6 7 5 4 4 3 4 5 6 6 5 6 6 3 3 5 2 1 5 4 4 5 2 2 3 3 3 5 6 5 4 5 6 5 2 4 4 2 5 2 6 5 7 7 7 5 5 5 4 4 4 3 3 3 5 4 4
3 1 2 2 2 2 3 6 7 7 8 5 3 5 8 9 8 7 4 2 6 7 5 6 11 12 9 6 4 4 6 6 8 6 5 5 4 5 6 5 5 5 4 3 2 4 5 1 2 3 3 1 2 3 5 5 4 5 6 6 5 3 5 6 2 2 4 6 3 2 6 7 2 6 6 5 6 6 6 6 5 5 4 4 5 6 5 4
3 2 3 3 2 2 3 5 7 5 10 8 5 7 10 10 10 8 6 3 6 9 6 6 8 11 12 10 6 4 5 4 4 5 5 5 4 4 4 4 6 7 5 5 3 3 4 1 1 4 4 4 4 5 7 8 6 6 8 7 5 4 6 6 3 3 7 7 5 6 10 7 3 5 5 5 5 5 6 7 8 8 7 7 8 6 5 5
2 1 4 3 2 3 3 5 5 4 9 9 5 7 8 9 8 8 9 8 5 6 6 6 6 8 10 11 9 6 3 3 1 2 3 5 5 3 3 1 3 6 6 4 2 3 3 1 1 4 4 4 4 6 8 7 7 7 9 10 8 7 8 6 4 4 7 6 4 8 10 6 5 5 5 6 5 6 8 9 8 7 7 8 8 7 7 6
4 3 3 1 2 5 5 5 6 5 7 8 6 6 7 8 7 5 7 10 8 6 5 4 5 6 8 11 11 6 4 3 2 4 5 4 3 2 2 1 1 3 5 3 2 3 3 2 1 5 4 3 3 5 6 6 8 9 9 11 10 7 6 5 5 6 4 5 5 8 7 3 6 5 5 7 8 10 11 9 8 7 7 8 8 7 7 7
9 3 4 2 2 6 4 4 6 6 4 6 8 8 8 7 7 5 4 7 8 8 6 5 6 5 6 9 8 6 6 5 6 7 5 5 5 4 3 3 1 1 0 1 2 1 3 3 1 3 3 3 3 4 5 5 6 4 4 6 6 3 7 8 9 10 7 4 5 5 3 1 5 4 6 9 10 11 10 8 7 7 7 8 8 8 9 8
Wind_Direction
322 321 318 316 314 314 313 311 310 310 313 312 311 313 314 317 316 315 314 310 311 308 308 309 306 309 308 308 310 313 317 313 314 303 251 256 259 224 188 189 181 189 219 224 233 272 275 257 249 246 262 299 217 232 247 208 177 122 126 185 228 225 226 200 171 253 305 311 317 314 321 88 14 322 19 60 71 78 62 50 72 57 63 101 118 129 137 142
322 320 317 316 313 313 313 311 310 309 310 310 311 311 311 313 312 312 312 309 310 309 310 308 305 308 306 308 313 317 319 314 308 282 256 257 258 210 201 198 156 172 195 205 220 220 213 234 247 233 180 239 244 234 250 244 168 151 159 204 231 216 238 241 208 275 297 292 302 297 303 33 28 287 12 75 101 90 80 64 81 81 81 99 116 128 137 141
321 319 315 312 310 310 310 308 307 307 307 308 307 308 309 309 308 308 309 309 310 312 308 305 305 306 308 311 316 321 318 318 300 265 262 250 234 209 200 198 176 188 211 215 227 218 214 256 316 323 175 235 259 231 235 264 255 191 177 228 247 227 256 277 244 256 251 262 297 297 309 20 328 294 32 120 123 105 116 125 104 104 111 115 120 129 135 135
319 316 312 310 309 308 307 306 304 304 304 305 305 305 307 306 308 307 306 310 312 312 305 303 306 304 310 312 317 325 317 323 279 256 254 215 220 203 197 197 188 209 230 234 237 229 237 276 330 340 215 244 258 220 216 239 257 213 176 217 239 228 256 264 248 258 262 258 255 279 340 357 313 321 60 145 118 112 159 161 143 137 134 130 132 133 131 127
316 314 313 310 308 307 305 305 303 303 302 302 304 303 305 305 306 306 307 312 308 307 307 305 306 303 307 312 316 323 329 24 257 273 253 210 202 196 197 192 190 210 223 226 232 235 251 263 323 338 237 242 246 209 230 228 216 248 230 231 240 235 253 260 252 257 262 269 268 293 28 317 310 344 345 92 161 209 191 166 145 142 139 135 135 131 126 127
316 314 312 309 308 306 303 303 300 300 301 300 303 303 305 304 304 305 305 308 304 306 310 307 307 307 310 315 309 292 359 121 269 285 250 204 182 190 193 190 192 208 214 216 221 214 229 210 145 196 227 233 216 202 241 233 171 241 267 255 252 242 243 256 257 257 252 274 280 271 148 260 18 344 328 32 271 213 140 129 128 129 130 128 128 126 130 136
317 314 311 309 307 303 301 302 298 298 299 299 301 300 302 302 304 305 303 306 305 306 309 310 311 310 320 326 278 227 176 265 273 263 219 194 175 183 188 190 193 202 207 204 195 185 182 155 179 201 220 246 219 212 243 241 174 204 257 262 256 242 238 248 247 251 254 254 251 225 29 350 55 325 338 48 41 122 114 115 118 120 121 120 121 124 130 134
317 314 310 308 305 302 302 302 299 299 299 300 300 300 302 301 301 301 302 304 302 305 308 312 314 310 329 342 212 250 235 254 271 223 201 197 179 182 185 187 194 199 200 200 190 169 158 188 218 209 215 238 216 228 255 284 228 210 239 254 254 247 242 245 237 240 256 246 234 232 290 256 215 175 88 100 106 110 115 116 116 118 114 113 117 122 128 131
318 315 310 308 304 301 302 302 301 300 298 298 299 301 303 302 303 302 300 300 300 303 307 312 314 313 328 324 264 307 256 248 267 194 197 198 187 185 186 187 196 198 197 205 194 161 172 208 219 200 218 243 223 246 248 213 257 220 228 248 252 255 251 253 251 241 255 245 228 248 265 260 236 130 75 118 118 113 116 116 118 119 116 119 125 133 137 138
320 317 312 308 303 300 302 303 302 299 299 298 298 299 300 301 302 302 299 299 301 300 303 308 311 322 322 295 154 263 271 248 191 184 195 198 190 186 191 195 196 194 194 198 191 190 202 205 206 197 264 270 238 256 233 188 246 243 247 260 249 251 250 250 263 263 273 261 229 232 259 274 270 109 87 177 127 122 118 119 124 122 125 133 137 144 145 146
323 320 314 307 301 301 301 303 302 299 298 298 300 299 299 300 298 299 298 294 294 292 297 304 311 338 323 305 142 225 249 220 192 178 188 194 193 195 196 197 192 192 193 187 201 209 216 228 235 2 281 264 274 290 262 216 288 284 269 273 261 263 262 244 266 281 301 283 234 210 263 291 348 126 161 162 138 129 124 127 130 125 131 137 138 145 146 151
327 322 316 307 302 303 303 302 300 297 298 300 302 302 302 305 305 302 297 290 286 283 286 296 309 357 328 308 213 230 202 185 191 164 172 180 196 206 194 190 193 197 196 187 225 226 232 244 245 256 251 253 309 306 280 271 303 282 266 264 280 321 305 271 268 262 215 274 251 126 322 308 309 187 154 145 137 130 125 129 132 131 135 136 142 145 149 158
332 325 317 311 307 305 302 297 295 295 300 303 302 304 305 308 308 301 295 289 278 270 264 269 281 296 329 256 240 249 252 264 218 179 173 143 161 195 186 189 200 210 209 209 234 240 241 242 224 218 240 247 264 265 294 304 306 286 293 226 307 351 309 273 244 259 233 234 201 102 331 278 267 164 144 141 139 134 130 139 141 139 141 142 151 149 155 164
337 330 321 317 313 307 301 296 296 299 301 302 301 305 309 311 310 302 293 285 269 244 240 251 305 155 168 257 266 282 299 298 233 199 180 152 168 188 193 200 209 221 222 222 237 252 254 252 240 223 233 203 231 296 325 328 331 302 323 343 359 355 281 277 226 256 267 235 138 120 244 257 267 164 154 154 147 145 143 152 149 143 147 149 158 155 162 173
344 336 328 323 318 310 304 302 301 302 302 301 303 311 321 322 319 312 297 283 236 173 204 239 212 190 347 278 282 298 301 289 208 200 182 175 201 205 211 211 214 222 226 231 242 255 259 260 253 214 262 281 38 6 338 332 332 335 341 319 345 218 268 299 259 219 227 248 125 141 227 258 271 194 165 159 150 149 146 154 149 143 150 155 164 163 165 177
352 344 336 329 322 317 314 314 310 306 304 302 310 324 331 326 329 327 308 290 167 156 157 322 214 187 4 280 293 305 258 194 193 195 187 198 208 215 225 221 223 228 230 236 244 255 262 263 239 179 287 333 55 60 14 358 337 343 66 269 290 261 292 318 291 237 213 237 150 181 218 267 286 190 160 155 151 149 145 153 150 147 157 159 166 169 168 176
358 353 346 337 328 328 327 322 316 309 305 308 319 328 320 311 315 328 330 63 117 152 172 251 300 210 261 277 298 295 228 199 198 193 195 212 217 225 234 230 231 231 238 248 253 264 281 269 218 206 12 15 89 90 44 354 303 315 17 280 260 239 269 291 293 274 208 203 205 214 211 245 296 148 148 155 155 149 148 156 155 155 160 161 168 173 174 177
2 359 354 346 336 332 328 321 319 314 313 321 327 317 294 285 280 289 100 124 113 111 223 278 315 284 262 272 280 266 205 201 205 199 204 212 218 228 231 235 231 215 261 292 275 270 301 314 61 65 348 359 74 103 120 239 210 248 284 290 282 259 248 251 269 267 199 189 199 210 212 242 285 143 147 162 160 154 158 160 158 160 162 165 170 174 177 179
2 1 358 353 342 332 326 323 323 320 323 330 327 308 286 274 266 151 137 135 118 124 256 229 187 165 274 249 246 260 234 204 199 202 208 206 210 224 230 246 249 134 102 336 297 281 181 331 27 104 282 275 221 158 192 217 195 223 239 206 231 267 263 248 259 256 197 166 189 200 198 201 220 150 143 166 168 157 155 153 152 159 162 165 168 173 175 183
0 360 358 355 348 337 325 324 324 321 328 333 330 320 296 3 40 38 170 187 205 220 240 210 187 238 287 282 294 302 261 215 196 200 209 205 199 207 222 242 235 135 157 174 259 292 133 164 262 221 223 229 228 206 205 227 228 237 237 203 238 259 289 289 288 277 159 140 197 199 165 170 214 185 125 143 154 145 144 146 154 160 167 170 172 174 174 186
356 356 356 355 351 341 325 323 320 315 326 331 335 342 248 177 98 311 276 229 231 224 238 230 202 232 260 270 286 305 311 236 209 204 208 205 186 171 220 206 170 220 233 179 214 308 102 178 241 231 220 219 228 221 211 226 235 239 152 18 312 326 288 293 305 330 79 114 212 145 114 153 234 235 139 130 135 171 160 155 163 169 177 179 173 172 174 181
351 353 353 352 352 345 331 321 314 314 320 319 318 281 247 248 245 300 302 276 262 218 224 241 225 242 252 257 268 274 295 245 220 221 207 194 170 176 232 180 157 225 260 127 190 325 50 233 242 237 224 216 250 253 216 211 201 212 79 51 310 293 294 301 313 348 27 91 12 158 134 188 231 245 193 160 165 188 179 167 170 173 175 179 174 168 170 170
348 348 349 350 350 346 334 320 315 316 317 311 279 234 278 295 301 314 315 295 289 230 211 231 225 245 251 255 260 246 239 228 212 233 200 173 169 180 183 183 185 225 257 156 188 200 231 244 241 237 206 163 257 254 184 180 60 105 357 58 284 278 328 302 311 342 12 84 146 152 131 242 267 304 243 194 173 174 185 181 175 175 174 177 177 169 169 171
345 344 345 345 346 346 337 322 317 317 322 309 275 281 320 321 310 309 308 247 291 272 215 217 208 229 239 245 246 208 207 216 198 220 193 166 158 165 170 184 180 235 241 196 181 193 240 253 258 253 194 165 206 232 155 99 357 294 226 193 224 203 187 245 299 339 352 10 78 84 31 321 334 23 304 286 174 158 180 185 188 201 188 174 173 171 174 173
345 341 341 341 343 344 338 324 318 339 336 299 279 320 345 343 315 281 289 17 294 281 232 211 196 228 236 230 225 206 194 208 205 193 179 173 169 154 185 180 155 231 242 215 181 209 250 254 262 265 210 169 175 216 189 133 43 314 256 213 210 179 201 255 304 12 25 349 332 79 44 297 322 352 283 324 131 175 189 186 195 206 192 175 176 177 180 173
345 340 338 338 338 339 338 326 313 346 325 283 290 339 346 348 347 205 194 29 305 271 234 173 167 217 229 201 188 175 145 217 218 182 174 185 183 162 168 199 185 224 226 213 195 220 254 243 210 188 169 144 148 190 208 149 115 314 250 208 201 167 174 245 259 89 89 274 280 88 125 254 317 321 285 335 131 183 206 211 210 199 183 190 190 184 182 172
343 339 337 334 335 339 338 295 304 324 301 283 325 351 344 343 340 191 84 34 302 260 198 177 173 188 203 187 161 133 155 233 211 179 180 187 184 157 182 220 235 219 201 86 342 256 268 275 167 163 146 138 144 190 212 145 120 231 242 198 186 144 130 164 150 140 208 240 314 11 102 151 300 290 280 326 96 172 198 212 224 204 193 194 195 192 184 171
339 338 335 330 331 334 322 293 302 304 287 311 331 345 346 344 327 120 72 49 272 264 152 228 227 173 201 194 156 164 215 210 135 218 194 183 179 145 195 222 199 206 198 108 271 269 276 263 194 180 147 156 185 213 204 140 133 241 237 209 218 169 147 136 109 114 283 352 323 321 56 98 270 281 311 352 37 278 213 211 214 203 197 194 194 194 184 176
335 334 331 325 324 324 317 299 283 290 331 339 339 339 345 346 348 68 76 140 276 317 156 196 183 180 247 192 168 204 227 150 165 249 185 174 181 142 190 222 198 210 222 152 208 260 251 217 199 160 133 193 217 220 185 143 192 248 231 232 266 209 128 103 94 103 43 45 260 277 345 104 268 287 321 360 39 290 247 230 234 201 190 192 192 188 179 174
331 330 327 322 318 317 317 296 273 300 356 355 348 342 353 9 51 67 72 245 273 279 230 170 162 172 184 165 188 222 230 206 179 213 92 166 186 137 171 218 161 188 271 55 200 248 270 240 192 150 165 194 198 212 191 168 200 251 316 306 331 359 23 56 71 88 66 4 254 259 189 121 294 286 274 276 249 265 231 117 296 194 171 176 176 170 164 155
326 325 321 314 308 300 301 289 264 334 358 348 344 349 15 31 65 100 208 248 278 286 337 345 251 180 171 175 193 219 229 244 137 118 117 163 170 197 323 334 39 59 358 350 310 294 326 315 221 223 192 150 115 282 290 191 151 63 48 75 60 347 3 25 360 43 88 257 263 261 163 108 128 264 259 270 287 289 219 142 171 158 143 144 140 138 136 134
322 320 314 306 296 275 254 251 247 294 327 335 346 12 60 50 40 175 238 304 326 264 288 280 252 220 185 184 195 201 210 235 160 149 181 164 157 191 215 212 183 56 340 289 301 329 334 273 260 292 236 127 102 359 321 352 43 75 91 81 89 345 10 20 316 356 157 241 251 255 307 93 220 244 254 280 299 297 238 150 148 129 125 123 119 120 118 118
322 319 311 301 289 267 256 260 269 286 307 327 1 45 78 88 230 221 238 289 248 232 319 316 277 233 192 193 212 198 192 219 201 173 189 169 156 199 234 222 168 127 200 219 216 338 321 306 307 329 310 138 122 137 271 313 33 117 156 120 114 120 67 302 271 312 261 267 267 263 285 358 289 270 236 257 292 289 122 118 119 113 113 110 105 111 112 106
323 320 312 301 287 271 264 264 265 271 294 329 39 67 92 145 239 232 227 252 260 281 322 305 291 281 209 201 224 196 180 215 200 174 177 150 138 210 257 255 180 136 137 179 188 171 142 320 289 198 263 219 151 166 178 167 139 182 171 139 137 147 143 199 220 189 228 272 298 313 9 157 221 262 240 257 311 74 101 94 95 94 94 96 91 88 92 85
324 320 312 298 282 272 262 253 251 252 267 23 65 86 148 206 241 234 225 241 266 295 299 281 272 271 265 291 275 221 185 209 204 167 165 160 171 204 211 224 200 148 119 162 223 187 149 250 258 244 227 179 165 187 158 115 62 261 132 99 156 183 152 160 183 174 174 148 312 309 268 204 201 259 290 26 45 95 104 104 104 99 92 92 87 80 84 76
325 321 314 292 275 270 258 244 238 220 179 87 79 165 203 213 221 208 225 238 285 331 327 316 280 225 224 290 312 315 287 232 210 168 192 177 185 215 216 217 196 165 150 158 205 192 130 250 278 324 355 171 187 203 163 121 152 277 33 82 236 177 129 119 229 195 100 100 280 269 251 298 325 309 343 53 85 104 108 115 114 114 113 106 106 107 102 93
326 325 314 277 271 265 252 237 203 175 143 94 120 207 222 219 222 225 262 301 332 347 346 331 313 177 165 233 320 2 4 329 217 178 269 311 290 292 283 271 231 182 174 152 170 186 134 256 290 6 22 318 299 235 134 124 133 111 87 215 215 63 85 106 124 354 52 110 272 269 183 322 13 302 335 23 21 37 104 122 123 122 123 120 126 133 125 119
321 323 295 280 277 252 231 208 171 151 109 93 166 228 231 219 235 247 287 317 324 333 337 274 265 234 159 163 287 27 31 348 267 194 214 226 234 267 278 291 334 167 175 135 97 195 119 96 294 342 28 316 335 38 18 332 36 123 175 179 96 85 352 67 115 147 105 157 274 292 106 33 100 255 323 355 328 298 116 130 132 133 135 135 140 140 132 124
318 328 288 314 327 213 193 172 154 133 76 139 195 241 238 252 265 263 277 294 293 291 279 239 231 267 187 165 186 159 124 260 266 236 202 197 225 249 289 308 354 15 97 105 116 194 102 111 272 303 345 337 350 40 40 321 335 24 69 29 53 135 156 162 143 150 147 159 243 297 22 317 234 278 318 313 297 254 179 127 99 107 118 125 134 129 118 112
337 346 249 356 11 170 168 147 134 112 106 174 196 221 246 276 272 269 266 263 261 251 250 232 184 345 269 205 182 162 163 229 256 242 145 323 301 287 350 2 340 315 60 75 87 114 56 96 203 292 333 36 9 10 53 345 333 353 355 349 351 83 98 128 112 93 123 135 174 141 36 287 261 263 284 291 338 104 129 104 74 82 95 97 115 119 112 111
3 10 224 353 9 157 148 122 139 131 148 209 217 216 258 280 272 286 280 261 259 243 232 228 193 176 206 228 237 190 168 226 255 232 150 356 94 143 349 18 5 326 56 58 35 73 75 113 156 293 343 47 232 266 351 338 264 181 302 306 151 132 110 107 12 315 106 127 157 146 141 270 267 259 268 269 116 110 113 108 106 121 128 123 126 131 129 122
28 317 266 349 21 157 142 79 206 143 148 214 214 222 253 269 262 282 284 276 268 240 224 231 217 191 197 197 192 190 143 176 245 237 183 171 167 180 3 33 22 358 50 76 339 203 124 104 101 117 238 238 249 250 29 16 41 92 61 28 82 105 105 121 178 253 65 84 147 114 111 264 263 263 270 283 80 74 88 111 121 120 116 113 111 114 111 106
50 265 293 354 32 148 128 28 254 258 226 215 233 236 241 258 263 280 286 283 276 248 227 281 268 60 192 186 89 76 48 99 209 231 153 130 176 173 61 36 37 29 41 61 295 314 68 81 64 337 287 304 311 334 43 32 44 56 16 10 48 25 70 138 170 178 119 118 159 103 97 260 274 284 268 126 93 72 64 87 102 94 64 56 61 62 74 86
312 262 293 357 19 70 90 63 237 257 252 253 275 247 245 253 254 263 276 284 279 225 135 43 346 354 237 334 82 87 34 48 150 10 89 141 191 180 103 56 65 66 37 197 185 51 37 98 84 51 1 343 347 355 2 6 24 42 328 356 32 26 28 59 55 66 87 170 149 123 169 233 261 298 319 87 91 84 76 78 88 92 83 66 55 45 53 86
327 299 282 347 9 32 98 198 232 246 262 283 289 263 262 263 250 237 237 315 342 30 82 27 8 11 3 12 64 82 49 69 75 360 12 126 153 182 156 129 99 71 39 134 125 104 107 124 107 105 124 238 309 294 294 331 346 335 341 2 20 33 41 53 48 60 84 210 94 117 175 231 290 349 32 60 84 90 90 96 98 101 109 105 98 83 57 72
360 3 329 335 3 29 155 241 332 1 322 295 300 285 275 287 284 253 142 44 12 36 51 26 20 34 17 13 55 48 33 58 80 24 13 18 7 357 101 113 105 100 99 86 72 79 90 80 103 126 149 179 190 215 241 15 22 334 333 353 4 23 50 83 87 88 150 112 37 209 169 125 350 359 16 16 57 96 100 100 97 94 103 110 122 123 114 121
41 28 6 337 326 352 354 350 4 359 329 325 40 332 338 356 342 349 39 41 12 39 61 33 27 41 12 358 61 34 4 37 52 26 1 2 3 8 20 55 82 99 110 92 68 89 85 47 97 120 142 183 182 211 315 37 43 345 335 346 355 17 53 78 87 164 165 105 355 290 93 80 358 353 18 4 10 48 40 32 62 87 91 87 96 102 106 123
38 55 360 354 316 331 352 343 334 338 352 13 45 26 14 19 26 17 357 21 28 25 59 45 30 39 25 11 77 45 357 38 43 0 343 358 359 8 9 13 23 35 73 61 27 95 101 140 195 118 99 102 94 45 34 54 51 26 15 356 347 36 80 90 95 187 140 120 183 220 93 87 357 352 21 14 15 40 37 22 43 74 68 55 57 57 49 35
31 30 333 349 357 265 267 304 303 338 12 12 25 38 30 26 34 28 3 13 28 18 43 68 38 43 40 32 69 66 16 45 35 344 348 357 347 13 22 358 350 4 38 41 10 72 100 164 205 102 79 32 35 47 50 53 48 37 26 7 2 66 88 89 72 63 89 105 145 128 93 76 20 348 351 350 5 36 46 37 42 51 49 51 50 40 33 30
23 349 329 347 355 324 326 337 336 23 25 13 22 37 36 31 31 35 32 38 43 15 33 63 47 44 48 45 57 64 48 83 113 283 326 344 342 12 36 8 332 347 13 34 358 22 77 162 230 87 71 350 358 48 53 61 74 57 23 4 8 41 52 47 27 34 70 87 91 89 80 52 355 344 355 7 19 37 41 36 39 42 45 56 52 29 17 14
346 271 324 20 12 359 10 7 9 40 27 6 9 20 33 35 25 35 41 38 50 49 40 70 61 39 39 41 42 29 351 344 276 254 258 282 300 311 312 299 25 3 355 6 9 21 71 110 14 67 76 301 322 53 48 62 76 57 22 359 357 28 61 52 23 20 68 118 87 66 70 24 320 335 28 44 48 52 43 26 23 26 29 46 49 34 27 20
357 318 346 89 83 7 3 18 23 44 31 352 359 17 33 35 24 47 61 23 32 55 65 82 82 62 41 29 13 335 304 293 282 276 260 249 260 264 260 269 277 109 83 24 37 36 98 104 81 88 98 283 299 64 64 58 54 24 342 335 335 52 88 66 35 21 25 94 101 82 98 265 303 343 46 51 51 56 50 33 28 27 23 32 34 29 30 33